EW7287 Weather Reports


Display with metric or nautical units.
time (UTC)temp
F
wind
direction
speed
MPH
gust
MPH
rain 1hr
in
rain 24hr
in
rain mn
in
humidity
%
barometer
mb
20260505093054 60 244 5.0 10.0 0.00 0.00 0.00 65 1011.4
20260505091552 60 231 7.0 15.0 0.00 0.00 0.00 64 1011.3
20260505084553 60 229 5.0 11.0 0.00 0.00 0.00 64 1011.3
20260505083056 60 235 4.0 11.0 0.00 0.00 0.00 63 1011.4
20260505081547 61 213 6.0 9.0 0.00 0.00 0.00 63 1011.4
20260505080044 61 205 4.0 9.0 0.00 0.00 0.00 63 1011.3
20260505074542 61 182 4.0 7.0 0.00 0.00 0.00 63 1011.2
20260505073041 61 213 4.0 7.0 0.00 0.00 0.00 62 1011.2
20260505071539 62 200 3.0 6.0 0.00 0.00 0.00 61 1011.0
20260505070044 62 211 4.0 8.0 0.00 0.00 0.00 61 1011.0
20260505064537 62 229 4.0 8.0 0.00 0.00 0.00 61 1011.1
20260505063040 62 221 2.0 7.0 0.00 0.00 0.00 61 1011.1
20260505061539 63 198 3.0 6.0 0.00 0.00 0.00 60 1011.1
20260505060034 63 215 3.0 7.0 0.00 0.00 0.00 60 1011.2
20260505054537 63 229 4.0 9.0 0.00 0.00 0.00 59 1011.2
20260505053040 64 225 5.0 12.0 0.00 0.00 0.00 58 1011.3
20260505051529 64 228 6.0 9.0 0.00 0.00 0.00 58 1011.4
20260505041522 63 215 4.0 8.0 0.00 0.00 0.00 57 1011.1
20260505040019 63 217 5.0 8.0 0.00 0.00 0.00 57 1011.1
20260505034519 63 205 3.0 7.0 0.00 0.00 0.00 57 1011.1
20260505033021 62 192 2.0 4.0 0.00 0.00 0.00 57 1011.2
20260505031517 62 190 2.0 4.0 0.00 0.00 0.00 56 1011.1
20260505030025 62 190 1.0 4.0 0.00 0.00 0.00 55 1011.2
20260505024516 63 140 1.0 3.0 0.00 0.00 0.00 56 1011.3
20260505023016 63 140 0.0 3.0 0.00 0.00 0.00 55 1011.3
20260505021515 64 140 1.0 4.0 0.00 0.00 0.00 53 1011.1
20260505020014 63 135 0.0 0.0 0.00 0.00 0.00 54 1011.3
20260505014516 64 135 0.0 0.0 0.00 0.00 0.00 53 1011.2
20260505013013 64 135 0.0 0.0 0.00 0.00 0.00 52 1010.9
20260505011518 65 135 1.0 3.0 0.00 0.00 0.00 50 1011.0
20260505010012 66 135 1.0 4.0 0.00 0.00 0.00 49 1010.7
20260505004523 67 111 2.0 6.0 0.00 0.00 0.00 48 1010.6
20260505003011 67 135 4.0 8.0 0.00 0.00 0.00 47 1010.6
20260505001510 68 132 2.0 7.0 0.00 0.00 0.00 46 1010.6
20260505000014 69 157 5.0 9.0 0.00 0.00 0.00 44 1010.5
20260504234510 71 140 4.0 14.0 0.00 0.00 0.00 39 1010.3
20260504233008 72 184 4.0 13.0 0.00 0.00 0.00 39 1010.3
20260504231521 72 219 5.0 17.0 0.00 0.00 0.00 38 1010.3
20260504230010 72 159 8.0 14.0 0.00 0.00 0.00 37 1010.4
20260504224506 73 202 8.0 15.0 0.00 0.00 0.00 37 1010.2
20260504223006 73 171 7.0 15.0 0.00 0.00 0.00 36 1010.3
20260504221505 72 236 9.0 15.0 0.00 0.00 0.00 36 1010.2
20260504220005 73 144 7.0 22.0 0.00 0.00 0.00 36 1010.2
20260504214506 73 157 5.0 16.0 0.00 0.00 0.00 37 1010.3
20260504213006 73 175 5.0 15.0 0.00 0.00 0.00 37 1010.3
20260504211502 72 117 10.0 18.0 0.00 0.00 0.00 37 1010.3
20260504210001 73 203 6.0 11.0 0.00 0.00 0.00 37 1010.4
20260504204638 73 225 13.0 20.0 0.00 0.00 0.00 36 1010.4
20260504203056 72 238 10.0 16.0 0.00 0.00 0.00 37 1010.7
20260504201554 72 249 10.0 18.0 0.00 0.00 0.00 37 1010.9
20260504200056 71 198 5.0 16.0 0.00 0.00 0.00 38 1011.1
20260504194553 71 190 11.0 17.0 0.00 0.00 0.00 38 1011.3
20260504193047 71 207 5.0 17.0 0.00 0.00 0.00 39 1011.6
20260504191546 70 188 12.0 22.0 0.00 0.00 0.00 37 1011.9
20260504190053 70 182 13.0 22.0 0.00 0.00 0.00 37 1012.2
20260504184553 70 190 7.0 17.0 0.00 0.00 0.00 38 1012.4
20260504183039 70 249 11.0 17.0 0.00 0.00 0.00 36 1012.6
20260504181538 69 202 7.0 12.0 0.00 0.00 0.00 37 1012.6
20260504180034 69 257 7.0 12.0 0.00 0.00 0.00 38 1012.8
20260504174531 68 240 10.0 19.0 0.00 0.00 0.00 36 1013.0
20260504173028 68 213 5.0 14.0 0.00 0.00 0.00 39 1013.2
20260504171538 67 259 10.0 15.0 0.00 0.00 0.00 38 1013.4